• In Austria
  • List of Countries
  • For 7 days
  • Water Temperature
  • Satellite Maps
  • Weather Map
  • News
  • Weather Widgets
  • user-avatar
    Login

    Hourly Weather Innsbruck

    Today, 25 February, Sunday

    Time Temperature Precipitation Wind Pressure Humidity
    00:00 -13°C° 0 mm 1 mps 587 mmHg 90%
    01:00 -16°C° 0 mm 2 mps 587 mmHg 88%
    02:00 -15°C° 0 mm 1 mps 587 mmHg 87%
    03:00 -15°C° 0 mm 1 mps 586 mmHg 87%
    04:00 -16°C° 0 mm 1 mps 586 mmHg 86%
    05:00 -17°C° 0 mm 1 mps 586 mmHg 87%
    06:00 -17°C° 0 mm 1 mps 586 mmHg 87%
    07:00 -18°C° 0 mm 1 mps 585 mmHg 95%
    08:00 -18°C° 0 mm 2 mps 586 mmHg 91%
    09:00 -17°C° 0 mm 2 mps 587 mmHg 88%
    10:00 -16°C° 0 mm 2 mps 588 mmHg 84%
    11:00 -15°C° 0 mm 2 mps 588 mmHg 81%
    12:00 -14°C° 0 mm 2 mps 588 mmHg 79%
    13:00 -15°C° 0 mm 3 mps 588 mmHg 77%
    14:00 -15°C° 0 mm 3 mps 588 mmHg 79%
    15:00 -16°C° 0 mm 3 mps 587 mmHg 81%
    16:00 -16°C° 0 mm 3 mps 587 mmHg 83%
    17:00 -17°C° 0 mm 2 mps 586 mmHg 87%
    18:00 -19°C° 0 mm 2 mps 586 mmHg 91%
    19:00 -21°C° 0 mm 2 mps 585 mmHg 94%
    20:00 -20°C° 0 mm 1 mps 585 mmHg 94%
    21:00 -21°C° 0 mm 1 mps 584 mmHg 93%
    22:00 -23°C° 0 mm 1 mps 584 mmHg 92%
    23:00 -23°C° 0 mm 1 mps 583 mmHg 91%

    Tomorrow, 26 February, Monday

    Time Temperature Precipitation Wind Pressure Humidity
    00:00 -24°C° 0 mm 1 mps 583 mmHg 91%
    01:00 -24°C° 0 mm 1 mps 583 mmHg 90%
    02:00 -25°C° 0 mm 1 mps 583 mmHg 89%
    03:00 -25°C° 0 mm 1 mps 582 mmHg 89%
    04:00 -25°C° 0 mm 1 mps 582 mmHg 88%
    05:00 -27°C° 0 mm 1 mps 582 mmHg 88%
    06:00 -27°C° 0 mm 1 mps 582 mmHg 88%
    07:00 -27°C° 0 mm 1 mps 582 mmHg 88%
    08:00 -27°C° 0 mm 2 mps 582 mmHg 85%
    09:00 -25°C° 0 mm 2 mps 583 mmHg 83%
    10:00 -23°C° 0 mm 2 mps 584 mmHg 80%
    11:00 -21°C° 0 mm 2 mps 584 mmHg 79%
    12:00 -22°C° 0 mm 3 mps 584 mmHg 78%
    13:00 -21°C° 0 mm 3 mps 584 mmHg 78%
    14:00 -22°C° 0.1 mm 3 mps 584 mmHg 79%
    15:00 -22°C° 0.1 mm 3 mps 584 mmHg 81%
    16:00 -22°C° 0.1 mm 3 mps 584 mmHg 83%
    17:00 -23°C° 0 mm 2 mps 583 mmHg 86%
    18:00 -24°C° 0 mm 2 mps 583 mmHg 90%
    19:00 -26°C° 0 mm 2 mps 582 mmHg 93%
    20:00 -26°C° 0 mm 2 mps 582 mmHg 93%
    21:00 -24°C° 0 mm 1 mps 581 mmHg 93%
    22:00 -25°C° 0 mm 1 mps 581 mmHg 93%
    23:00 -25°C° 0 mm 1 mps 581 mmHg 93%

    Day after tomorrow, 27 February, Tuesday

    Time Temperature Precipitation Wind Pressure Humidity
    00:00 -27°C° 0 mm 1 mps 581 mmHg 92%
    01:00 -27°C° 0 mm 1 mps 580 mmHg 91%
    02:00 -27°C° 0 mm 1 mps 580 mmHg 90%
    03:00 -27°C° 0 mm 1 mps 580 mmHg 90%
    04:00 -27°C° 0 mm 1 mps 579 mmHg 89%
    05:00 -28°C° 0 mm 1 mps 579 mmHg 89%
    06:00 -28°C° 0 mm 1 mps 579 mmHg 89%
    07:00 -28°C° 0 mm 1 mps 579 mmHg 89%
    08:00 -24°C° 0 mm 1 mps 580 mmHg 85%
    09:00 -22°C° 0 mm 1 mps 581 mmHg 82%
    10:00 -20°C° 0 mm 1 mps 582 mmHg 79%
    11:00 -19°C° 0 mm 1 mps 582 mmHg 76%
    12:00 -18°C° 0 mm 1 mps 582 mmHg 74%
    13:00 -17°C° 0 mm 1 mps 583 mmHg 71%
    14:00 -17°C° 0.1 mm 1 mps 583 mmHg 74%
    15:00 -19°C° 0.1 mm 2 mps 583 mmHg 77%
    16:00 -18°C° 0.1 mm 2 mps 583 mmHg 80%
    17:00 -18°C° 0.1 mm 1 mps 582 mmHg 85%
    18:00 -20°C° 0.1 mm 1 mps 582 mmHg 89%
    19:00 -21°C° 0.1 mm 1 mps 581 mmHg 94%
    20:00 -22°C° 0 mm 1 mps 581 mmHg 93%
    21:00 -23°C° 0 mm 1 mps 581 mmHg 93%
    22:00 -24°C° 0 mm 1 mps 581 mmHg 92%
    23:00 -24°C° 0 mm 1 mps 581 mmHg 91%

    28 February, Wednesday

    Time Temperature Precipitation Wind Pressure Humidity
    00:00 -24°C° 0 mm 1 mps 581 mmHg 89%
    01:00 -24°C° 0 mm 1 mps 581 mmHg 87%
    02:00 -24°C° 0 mm 1 mps 581 mmHg 86%
    03:00 -24°C° 0 mm 1 mps 581 mmHg 86%
    04:00 -25°C° 0 mm 1 mps 581 mmHg 85%
    05:00 -25°C° 0 mm 1 mps 581 mmHg 84%
    06:00 -25°C° 0 mm 1 mps 581 mmHg 84%
    07:00 -25°C° 0 mm 1 mps 582 mmHg 83%
    08:00 -22°C° 0 mm 1 mps 583 mmHg 76%
    09:00 -19°C° 0 mm 1 mps 584 mmHg 69%
    10:00 -16°C° 0 mm 0 mps 586 mmHg 61%
    11:00 -15°C° 0 mm 1 mps 586 mmHg 58%
    12:00 -14°C° 0 mm 1 mps 586 mmHg 56%
    13:00 -13°C° 0 mm 1 mps 587 mmHg 53%
    14:00 -12°C° 0 mm 1 mps 587 mmHg 58%
    15:00 -14°C° 0 mm 2 mps 587 mmHg 63%
    16:00 -14°C° 0 mm 2 mps 587 mmHg 68%
    17:00 -16°C° 0 mm 2 mps 586 mmHg 74%
    18:00 -18°C° 0 mm 2 mps 585 mmHg 81%
    19:00 -20°C° 0 mm 2 mps 584 mmHg 87%
    20:00 -20°C° 0 mm 2 mps 585 mmHg 86%
    21:00 -20°C° 0 mm 2 mps 585 mmHg 85%
    22:00 -20°C° 0 mm 2 mps 585 mmHg 84%
    23:00 -22°C° 0 mm 3 mps 585 mmHg 83%

    1 March, Thursday

    Time Temperature Precipitation Wind Pressure Humidity
    00:00 -22°C° 0 mm 3 mps 585 mmHg 83%
    01:00 -22°C° 0 mm 3 mps 585 mmHg 82%
    02:00 -22°C° 0 mm 3 mps 584 mmHg 81%
    03:00 -21°C° 0 mm 3 mps 584 mmHg 81%
    04:00 -21°C° 0 mm 3 mps 584 mmHg 81%
    05:00 -21°C° 0 mm 3 mps 584 mmHg 81%
    06:00 -19°C° 0 mm 3 mps 584 mmHg 80%
    07:00 -19°C° 0 mm 3 mps 584 mmHg 80%
    08:00 -16°C° 0 mm 3 mps 585 mmHg 79%
    09:00 -14°C° 0 mm 3 mps 585 mmHg 78%
    10:00 -12°C° 0 mm 3 mps 586 mmHg 77%
    11:00 -10°C° 0 mm 3 mps 586 mmHg 78%
    12:00 -8°C° 0 mm 3 mps 586 mmHg 79%
    13:00 -7°C° 0 mm 3 mps 586 mmHg 81%
    14:00 -7°C° 0.1 mm 3 mps 586 mmHg 83%
    15:00 -7°C° 0.1 mm 3 mps 586 mmHg 84%
    16:00 -7°C° 0.1 mm 3 mps 585 mmHg 86%
    17:00 -8°C° 0 mm 3 mps 585 mmHg 88%
    18:00 -8°C° 0 mm 2 mps 585 mmHg 90%
    19:00 -9°C° 0 mm 2 mps 584 mmHg 92%
    20:00 -12°C° 0 mm 3 mps 584 mmHg 91%
    21:00 -12°C° 0 mm 3 mps 584 mmHg 90%
    22:00 -12°C° 0 mm 3 mps 584 mmHg 89%
    23:00 -13°C° 0 mm 3 mps 583 mmHg 89%

    2 March, Friday

    Time Temperature Precipitation Wind Pressure Humidity
    00:00 -13°C° 0 mm 3 mps 583 mmHg 89%
    01:00 -13°C° 0 mm 3 mps 583 mmHg 88%
    02:00 -13°C° 0 mm 3 mps 582 mmHg 88%
    03:00 -13°C° 0 mm 3 mps 582 mmHg 88%
    04:00 -13°C° 0 mm 3 mps 581 mmHg 87%
    05:00 -13°C° 0 mm 3 mps 581 mmHg 87%
    06:00 -13°C° 0 mm 3 mps 581 mmHg 87%
    07:00 -13°C° 0 mm 3 mps 581 mmHg 87%
    08:00 -9°C° 0 mm 3 mps 582 mmHg 86%
    09:00 -7°C° 0 mm 3 mps 582 mmHg 86%
    10:00 -5°C° 0 mm 3 mps 583 mmHg 85%
    11:00 -3°C° 0 mm 2 mps 583 mmHg 87%
    12:00 -2°C° 0 mm 2 mps 583 mmHg 88%
    13:00 -2°C° 0 mm 2 mps 583 mmHg 90%
    14:00 -2°C° 0 mm 2 mps 583 mmHg 90%
    15:00 -2°C° 0 mm 2 mps 583 mmHg 91%
    16:00 0°C° 0 mm 1 mps 583 mmHg 91%
    17:00 -1°C° 0.2 mm 1 mps 583 mmHg 93%
    18:00 -2°C° 0.2 mm 1 mps 583 mmHg 94%
    19:00 -4°C° 0.2 mm 0 mps 583 mmHg 95%
    20:00 -4°C° 0.3 mm 0 mps 583 mmHg 95%
    21:00 -3°C° 0.3 mm 1 mps 584 mmHg 95%
    22:00 -3°C° 0.3 mm 1 mps 584 mmHg 95%
    23:00 -4°C° 0.3 mm 1 mps 584 mmHg 94%
    Show more